• Join FlightAware (Why Join?)
  • Login
  • US Flag 
11:00AM EDT


 

Airport Tracker/Info


-or-


 

Live Flight TrackerFlight Track Log ✈ UAL6057 ✈ 07-May-2013 ✈ KATW - KORD

Flight Track Log - Related Links

Times and Time Zones

All times are in EDT time to prevent confusion due to time zone crossing. See the UAL6057 flight status page for this flight to view local times or setup timezone preferences in your user account.

Time Position Orientation Groundspeed Altitude Reporting Facility
EDT Latitude Longitude Course Direction KTS MPH feet Rate Location/Type
07:24PM 44.2333 -88.4500 160° South 189 217 3,300  Level KMKE
07:25PM 44.1833 -88.3833 136° Southeast 254 292 6,300 2,340 Climbing KMKE
07:26PM 44.1614 -88.3750 165° South 232 267 6,800 2,280 Climbing Chicago Center
07:26PM 44.1167 -88.3667 172° South 287 330 8,400 2,760 Climbing KMKE
07:27PM 43.9476 -88.3654 160° South  Level FlightAware Approximate
07:27PM 44.0853 -88.3544 164° South 268 308 9,600  Level Minneapolis Center
07:28PM 43.8714 -88.3285 164° South  Level FlightAware Approximate
07:28PM 43.9919 -88.3206 165° South 293 337 11,800  Level Minneapolis Center
07:29PM 43.7938 -88.2975 164° South  Level FlightAware Approximate
07:29PM 43.8956 -88.2869 166° South 344 396 12,800  Level Minneapolis Center
07:30PM 43.7162 -88.2664 160° South  Level FlightAware Approximate
07:30PM 43.7925 -88.2514 166° South 373 429 13,000  Level Minneapolis Center
07:31PM 43.6883 -88.2172 167° South 381 438 13,000  Level Minneapolis Center
07:32PM 43.5850 -88.1817 166° South 380 437 13,000  Level Minneapolis Center
07:33PM 43.4789 -88.2033 188° South 381 438 13,000  Level Minneapolis Center
07:34PM 43.3553 -88.2272 188° South 380 437 13,000  Level Chicago Center
07:35PM 43.2494 -88.2494 189° South 380 437 13,000  Level Chicago Center
07:36PM 43.1425 -88.2708 188° South 383 441 13,000 -300 Level Chicago Center
07:37PM 43.0367 -88.2797 184° South 384 442 12,400 -1,080 Descending Chicago Center
07:38PM 42.9294 -88.2706 176° South 385 443 10,800 -1,260 Descending Chicago Center
07:39PM 42.8353 -88.2653 178° South 335 386 9,900 -1,320 Descending Chicago Center
07:40PM 42.7433 -88.2581 177° South 285 328 8,100 -960 Descending Chicago Center
07:41PM 42.6703 -88.2561 179° South 266 306 8,000 -60 Descending Chicago Center
07:42PM 42.5939 -88.2503 177° South 271 312 8,000  Level Chicago Center
07:43PM 42.5172 -88.2464 178° South 274 315 8,000  Level Chicago Center
07:44PM 42.4397 -88.2578 186° South 285 328 8,000  Level Chicago Center
07:45PM 42.3578 -88.3139 207° Southwest 284 327 8,000  Level Chicago Center
07:46PM 42.2881 -88.3458 199° South 281 323 8,000  Level Chicago Center
07:47PM 42.2136 -88.3714 194° South 277 319 8,000  Level Chicago Center
07:48PM 42.1472 -88.4039 200° South 261 300 8,000 -240 Level Chicago Center
07:49PM 42.0839 -88.4311 198° South 209 241 7,600 -660 Descending Chicago Center
07:50PM 42.0294 -88.4350 183° South 203 234 6,700 -960 Descending Chicago Center
07:51PM 41.9861 -88.3997 149° Southeast 201 231 5,700 -840 Descending Chicago Center
07:52PM 41.9656 -88.3381 114° Southeast 187 215 5,000 -360 Descending Chicago Center
07:53PM 41.9669 -88.2706 88° East 183 211 5,000 -240 Level Chicago Center
07:54PM 41.9678 -88.2025 89° East 183 211 4,600 -780 Descending Chicago Center
07:56PM 41.9683 -88.1231 89° East 181 208 3,500 -1,020 Descending Chicago Center
07:57PM 41.9667 -88.0500 92° East 162 186 2,500 -960 Descending Chicago TRACON